Showing default

AETHER-11, 67382

Orbit data source: Space-Track

AETHER-11, 67382 is a payload satellite owned by Kepler Comms (CA) in SSO that was launched on Sun, 11 Jan 2026 UTC via an FALCON 9 launch vehicle from the Air Force Western Test Range (AFWTR). Payload-class satellites include a variety of spacecraft equipped with specific instruments for various scientific and technological missions. These include communications satellites like Starlink; space stations such as the ISS; scientific satellites like the Hubble; Earth observation satellites from companies like Planet Labs, Umbra, and HawkEye 360; GPS; miniature CubeSats for education and research; and military/defense satellites.

Loading next visibility...
Identifier
67382, 2026-004V
Orbit
SSO
Country
Flag of CACA
Related business
Manufacturer
Kepler Comms
Mission
Operational spacecraft
Bus & Motor
KEPLER GEN2B, Unknown motor
Mass
300 kg wet, 300 kg dry
Launch date (UTC)
2026-01-11 (3 months ago)
Launch vehicle
FALCON 9
Launch site
Air Force Western Test Range (AFWTR)
Object type
Payload
Rocket body
Debris
Shape & HBR
Unknown shape, 7.6 m
Radar Cross Section
RCS unknown

Expand to show TLE details & history
Last TLE update: 5 hours ago

TLE from 5 hours ago
0 AETHER-11
1 67382U 26004V   26095.60002055  .00001301  00000-0  14707-3 0  9995
2 67382  97.8041  95.4194 0004939  19.1406 340.9995 14.88168214 12493
Epoch: 2026-04-05T14:24Z
TLE epoch observation values (Epoch: 2026-04-05T14:24:01.775Z)
Latitude
-0.00006°
Longitude
45.50889°
Altitude
603.434 km
Speed
7.56 km/s
True Right ascension
06h 21m 40s
True Declination
0° 00' 00"
Sunlit
Object was in daylight at epoch
Visualization orbit readout
Latitude
Unknown
Longitude
Unknown
Altitude
Unknown
Speed
Unknown
Apparent Right ascension
Unknown
Apparent Declination
Unknown
Sunlit
N/A
Visualization observer readout
Local Sidereal Time
00:59:50
Azimuth
Unknown
Elevation
Unknown
Doppler factor
Unknown
Orbital elements
Apogee altitude
604.132 km
Perigee altitude
597.238 km
Semi-major axis
6,978.822 km
Eccentricity
0.00049
Inclination
97.8041°
RAAN
95.4194°
Arg. of periapsis
19.1406°
True anomaly
340.98106°
Mean anomaly
340.9995°
Eccentric anomaly
340.99028°
Mean motion
3.7228 °/min
Orbital period
96.7 mins
BSTAR
0.00014707
Loading maneuver chart data...
Computing Atmospheric mass density...
Loading historical data...
Loading historical data...
Loading historical data...
Loading historical data...
Loading historical data...
Loading historical data...
Loading historical data...

Documentation

Showing up to 5 results
|